LAPAN-A2 (40931 NORAD) Tracking and Keplerian Element Data

This shows tracking and keplerian element data for the satellite.

Feedback or suggestion? Click here.




ElementValue
Catalog40931
NameLAPAN-A2
Epoch Orbit19234
Epoch Day109.43819918
Epoch Year2019
RAAN126.2474
Inclination5.9979
Eccentricity0.0013317
Argument of Perigee17.6286
Mean Anonmoly342.8166
Mean Motion14.76603447
Decay Rate5.78E-06
L11 40931U 15052B 19109.43819918 .00000578 00000-0 -86043-5 0 9990
L22 40931 5.9979 126.2474 0013317 17.6286 342.8166 14.76603447192340

Live tracking and technical data element details for LAPAN-A2 (NORAD 40931). LAPAN-A2 can be tracked NOW for your location showing map with azimuth and elevation plus other details from your city location.

Track the satellite on the map from your city or location and see movement details for azimuth, elevation, latitude, longitude, range, height, and movement on the map or in text.







IsCatalogInMostPopularTable: catalog: 40931, numindb: 263
Update: records affected: 1



GetName: 40931 LAPAN-A2

Hit Count: updated at: Sat, 20 Apr 2019 20:29:35 GMT